EW4022 Weather Reports


time (UTC)temp
C
wind
direction
speed
KPH
gust
KPH
rain 1hr
cm
rain 24hr
cm
rain mn
cm
humidity
%
barometer
mb
20260508064504 6 119 0.0 4.8 0.00 0.00 0.00 85 975.7
20260508064003 6 119 1.6 4.8 0.00 0.00 0.00 85 975.6
20260508063503 6 119 0.0 3.2 0.00 0.00 0.00 84 975.7
20260508063001 6 119 0.0 3.2 0.00 0.00 0.00 84 975.6
20260508062603 6 119 1.6 3.2 0.00 0.00 0.00 84 975.6
20260508062100 6 119 0.0 0.0 0.00 0.00 0.00 83 975.6
20260508061559 6 119 0.0 4.8 0.00 0.00 0.00 83 975.5
20260508061058 7 119 0.0 4.8 0.00 0.00 0.00 83 975.6
20260508060556 7 119 0.0 1.6 0.00 0.00 0.00 83 975.6
20260508060057 7 119 0.0 4.8 0.00 0.00 0.00 83 975.6
20260508055555 7 119 1.6 4.8 0.00 0.00 0.00 83 975.6
20260508055055 7 119 0.0 3.2 0.00 0.00 0.00 83 975.5
20260508054554 7 119 0.0 3.2 0.00 0.00 0.00 84 975.4
20260508054055 7 119 0.0 3.2 0.00 0.00 0.00 84 975.3
20260508053552 7 119 0.0 4.8 0.00 0.00 0.00 84 975.3
20260508053059 7 119 0.0 4.8 0.00 0.00 0.00 85 975.2
20260508052552 7 119 0.0 0.0 0.00 0.00 0.00 85 975.1
20260508052050 7 119 0.0 4.8 0.00 0.00 0.00 84 975.0
20260508051615 7 119 1.6 4.8 0.00 0.00 0.00 84 975.0
20260508051049 7 119 0.0 3.2 0.00 0.00 0.00 84 974.9
20260508050549 7 119 0.0 3.2 0.00 0.00 0.00 84 974.8
20260508050048 7 119 0.0 3.2 0.00 0.00 0.00 84 974.7
20260508045547 7 119 0.0 1.6 0.00 0.00 0.00 83 974.7
20260508045048 7 119 0.0 4.8 0.00 0.00 0.00 83 974.5
20260508044546 7 119 0.0 4.8 0.00 0.00 0.00 83 974.5
20260508044046 7 118 1.6 4.8 0.00 0.00 0.00 83 974.5
20260508043545 7 118 1.6 4.8 0.00 0.00 0.00 83 974.5
20260508043044 7 116 0.0 4.8 0.00 0.00 0.00 82 974.5
20260508042544 7 116 0.0 3.2 0.00 0.00 0.00 82 974.5
20260508042043 7 116 0.0 3.2 0.00 0.00 0.00 82 974.4
20260508041545 7 117 0.0 3.2 0.00 0.00 0.00 82 974.5
20260508041041 7 116 0.0 3.2 0.00 0.00 0.00 81 974.5
20260508040540 7 116 1.6 3.2 0.00 0.00 0.00 81 974.5
20260508040038 8 116 1.6 3.2 0.00 0.00 0.00 81 974.3
20260508035539 8 116 0.0 3.2 0.00 0.00 0.00 81 974.1
20260508035037 8 117 1.6 4.8 0.00 0.00 0.00 81 974.1
20260508034538 8 117 0.0 4.8 0.00 0.00 0.00 81 974.0
20260508034035 8 117 0.0 1.6 0.00 0.00 0.00 81 974.1
20260508033535 8 116 0.0 1.6 0.00 0.00 0.00 81 974.2
20260508033043 8 117 0.0 0.0 0.00 0.00 0.00 82 974.2
20260508032534 8 117 0.0 0.0 0.00 0.00 0.00 81 974.2
20260508032033 8 116 0.0 0.0 0.00 0.00 0.00 81 974.1
20260508031532 8 117 0.0 0.0 0.00 0.00 0.00 81 974.0
20260508031031 8 117 0.0 0.0 0.00 0.00 0.00 81 973.9
20260508030534 8 116 0.0 0.0 0.00 0.00 0.00 81 973.9
20260508030030 8 116 0.0 0.0 0.00 0.00 0.00 81 973.9
20260508025532 9 116 0.0 3.2 0.00 0.10 0.00 81 973.8
20260508025028 9 117 0.0 3.2 0.00 0.10 0.00 80 973.8
20260508024531 9 116 1.6 3.2 0.00 0.10 0.00 80 973.8
20260508024026 9 117 0.0 3.2 0.00 0.10 0.00 79 973.7
20260508023525 10 117 0.0 3.2 0.00 0.10 0.00 79 973.7
20260508023030 10 116 1.6 3.2 0.00 0.10 0.00 79 973.7
20260508022523 10 117 0.0 3.2 0.00 0.10 0.00 78 973.6
20260508022022 10 116 0.0 3.2 0.00 0.10 0.00 78 973.4
20260508021530 10 116 0.0 1.6 0.00 0.10 0.00 77 973.4
20260508021027 10 117 0.0 3.2 0.00 0.10 0.00 77 973.3
20260508020518 10 117 0.0 4.8 0.00 0.10 0.00 77 973.2
20260508020018 10 116 1.6 4.8 0.00 0.10 0.00 77 973.1
20260508015517 10 117 0.0 3.2 0.00 0.13 0.00 77 972.9
20260508015016 10 117 0.0 3.2 0.00 0.13 0.00 76 972.9
20260508014516 11 116 0.0 4.8 0.00 0.13 0.00 76 972.8
20260508014015 11 116 1.6 4.8 0.00 0.13 0.00 75 972.7
20260508013513 11 116 0.0 4.8 0.00 0.13 0.00 75 972.6
20260508013013 11 116 0.0 4.8 0.00 0.13 0.00 74 972.7
20260508012511 11 116 1.6 4.8 0.00 0.13 0.00 73 972.6
20260508012010 11 116 0.0 1.6 0.00 0.13 0.00 72 972.4
20260508011509 11 116 0.0 3.2 0.00 0.13 0.00 72 972.4
20260508011008 12 116 0.0 3.2 0.00 0.13 0.00 71 972.3
20260508010507 12 116 0.0 3.2 0.00 0.13 0.00 71 972.2
20260508010013 12 116 0.0 4.8 0.00 0.13 0.00 70 972.2
20260508005505 12 116 0.0 3.2 0.00 0.13 0.00 69 972.1
20260508005005 12 116 0.0 1.6 0.00 0.13 0.00 68 971.9
20260508004503 12 116 0.0 3.2 0.00 0.13 0.00 68 971.9
20260508004003 13 116 0.0 3.2 0.00 0.13 0.00 66 972.0
20260508003501 13 116 0.0 3.2 0.00 0.13 0.00 66 971.9
20260508003117 13 116 0.0 3.2 0.00 0.13 0.00 64 972.0
20260508002558 14 116 0.0 1.6 0.00 0.13 0.00 62 972.0
20260508002057 15 116 0.0 0.0 0.00 0.13 0.00 61 971.9
20260508001600 15 116 0.0 14.5 0.00 0.13 0.00 60 971.8
20260508001057 15 116 0.0 14.5 0.00 0.13 0.00 57 971.7
20260508000557 15 50 0.0 3.2 0.00 0.13 0.00 57 971.8
20260508000056 15 50 1.6 9.7 0.00 0.13 0.00 57 971.7
20260507235556 15 50 3.2 9.7 0.00 0.13 0.00 56 971.6
20260507235056 15 11 1.6 11.3 0.00 0.13 0.00 57 971.6
20260507234556 15 35 1.6 8.0 0.00 0.13 0.00 58 971.5
20260507234055 15 36 3.2 8.0 0.00 0.13 0.00 58 971.5
20260507233555 15 249 0.0 4.8 0.00 0.13 0.00 63 971.4
20260507233055 16 249 0.0 4.8 0.00 0.13 0.00 63 971.4
20260507232554 16 249 1.6 4.8 0.00 0.13 0.00 61 971.3
20260507232054 16 249 0.0 1.6 0.00 0.13 0.00 61 971.2
20260507231556 16 249 0.0 4.8 0.00 0.13 0.00 59 971.1
20260507231054 16 249 0.0 11.3 0.00 0.13 0.00 57 971.1
20260507230554 16 274 1.6 9.7 0.00 0.13 0.00 56 970.9
20260507230110 16 227 3.2 11.3 0.00 0.13 0.00 55 970.9
20260507225554 16 187 1.6 11.3 0.00 0.13 0.00 54 970.9
20260507225054 16 271 3.2 9.7 0.00 0.13 0.00 55 970.8
20260507224554 17 271 0.0 11.3 0.00 0.13 0.00 56 970.9
20260507224053 17 270 1.6 11.3 0.00 0.13 0.00 54 970.8
20260507223553 17 192 3.2 11.3 0.00 0.13 0.00 55 970.8
20260507223155 17 128 4.8 11.3 0.00 0.13 0.00 54 970.8
20260507222553 17 200 1.6 11.3 0.00 0.13 0.00 54 970.8
20260507222052 17 194 3.2 11.3 0.00 0.13 0.00 56 970.8
20260507221552 17 16 1.6 8.0 0.00 0.13 0.00 55 970.6
20260507221051 17 225 0.0 9.7 0.00 0.13 0.00 54 970.5
20260507220551 18 207 1.6 9.7 0.00 0.13 0.00 56 970.5
20260507220052 18 207 1.6 14.5 0.00 0.13 0.00 55 970.4
20260507215553 18 248 1.6 14.5 0.00 0.13 0.00 54 970.3
20260507215050 18 265 0.0 6.4 0.00 0.13 0.00 55 970.3
20260507214557 18 271 1.6 11.3 0.00 0.13 0.00 56 970.2
20260507214051 18 44 3.2 12.9 0.00 0.13 0.00 54 970.1
20260507213551 18 200 3.2 12.9 0.00 0.13 0.00 56 970.1
20260507213114 18 199 4.8 9.7 0.00 0.13 0.00 54 970.1
20260507212554 18 54 1.6 9.7 0.00 0.13 0.00 56 970.1
20260507212049 18 198 1.6 11.3 0.00 0.13 0.00 56 970.1
20260507211549 18 238 0.0 11.3 0.00 0.13 0.00 58 970.1
20260507211048 17 273 0.0 11.3 0.00 0.13 0.00 59 970.2
20260507210549 17 21 0.0 16.1 0.00 0.13 0.00 61 970.1
20260507210049 17 248 4.8 16.1 0.00 0.13 0.00 61 970.0
20260507205546 18 9 0.0 3.2 0.00 0.13 0.00 68 970.0
20260507205047 17 10 0.0 3.2 0.00 0.13 0.00 67 969.9
20260507204547 17 9 0.0 3.2 0.00 0.13 0.00 69 969.9
20260507204044 17 9 0.0 6.4 0.00 0.13 0.00 69 969.9
20260507203544 16 9 0.0 6.4 0.00 0.13 0.00 70 969.8
20260507203044 16 9 1.6 6.4 0.00 0.13 0.00 70 969.9
20260507202544 16 9 0.0 4.8 0.00 0.13 0.00 70 969.9
20260507202048 16 9 1.6 8.0 0.00 0.13 0.00 70 969.9
20260507201549 16 9 1.6 9.7 0.00 0.13 0.00 70 969.9
20260507201042 16 175 0.0 9.7 0.00 0.13 0.00 68 969.9
20260507200542 17 13 1.6 8.0 0.00 0.13 0.00 67 970.1
20260507200053 17 13 3.2 14.5 0.00 0.13 0.00 68 970.1
20260507195540 17 16 3.2 19.3 0.00 0.13 0.00 69 970.2
20260507195040 17 24 3.2 9.7 0.00 0.13 0.00 67 970.4
20260507194540 17 22 3.2 9.7 0.00 0.13 0.00 68 970.5
20260507194039 17 5 1.6 6.4 0.00 0.13 0.00 69 970.6
20260507193540 16 5 0.0 6.4 0.00 0.13 0.00 68 970.7
20260507193045 16 30 1.6 6.4 0.00 0.13 0.00 69 970.8
20260507192542 16 30 1.6 6.4 0.00 0.13 0.00 69 970.9
20260507192038 16 274 0.0 6.4 0.00 0.13 0.00 70 971.0
20260507191538 16 274 0.0 4.8 0.00 0.13 0.00 70 971.1
20260507191042 16 274 0.0 4.8 0.00 0.13 0.00 71 971.2
20260507190537 15 274 0.0 6.4 0.00 0.13 0.00 71 971.0
20260507190039 15 275 1.6 6.4 0.00 0.13 0.00 71 971.1
20260507185536 15 273 1.6 6.4 0.00 0.13 0.00 72 971.4
20260507185037 15 275 1.6 4.8 0.00 0.13 0.00 73 971.4
20260507184537 15 275 0.0 4.8 0.00 0.13 0.00 73 971.5
20260507184036 15 275 0.0 6.4 0.00 0.13 0.00 74 971.5
20260507183539 15 275 1.6 4.8 0.00 0.13 0.00 74 971.6
20260507183039 15 275 0.0 3.2 0.00 0.13 0.00 76 971.6
20260507182535 15 275 0.0 4.8 0.00 0.13 0.00 76 971.6
20260507182035 15 275 0.0 4.8 0.00 0.13 0.00 76 971.5
20260507181535 15 274 0.0 6.4 0.00 0.13 0.00 76 971.5
20260507181034 15 274 0.0 6.4 0.00 0.13 0.00 75 971.6
20260507180535 15 274 1.6 6.4 0.00 0.13 0.00 74 971.6
20260507180035 15 360 1.6 6.4 0.00 0.13 0.00 75 971.5
20260507175533 15 246 0.0 4.8 0.00 0.13 0.00 75 971.5
20260507175033 15 245 0.0 4.8 0.00 0.13 0.00 75 971.6
20260507174544 15 248 0.0 3.2 0.00 0.13 0.00 74 971.6
20260507174034 15 248 0.0 3.2 0.00 0.13 0.00 76 971.7
20260507173532 15 248 0.0 4.8 0.00 0.13 0.00 77 971.5
20260507173036 15 248 0.0 4.8 0.00 0.13 0.00 76 971.6
20260507172538 15 248 0.0 4.8 0.00 0.13 0.00 76 971.6
20260507172032 15 248 0.0 8.0 0.00 0.13 0.00 76 971.8
20260507171531 15 235 1.6 6.4 0.00 0.13 0.00 76 971.6
20260507171032 15 232 0.0 6.4 0.00 0.13 0.00 76 971.7
20260507170533 15 235 0.0 6.4 0.00 0.13 0.00 77 971.7
20260507170031 15 235 1.6 4.8 0.00 0.13 0.00 77 971.5
20260507165532 15 245 0.0 6.4 0.00 0.13 0.00 77 971.7
20260507165031 15 245 3.2 6.4 0.00 0.13 0.00 77 971.8
20260507164531 15 234 0.0 3.2 0.00 0.13 0.00 77 971.8
20260507164031 15 234 1.6 6.4 0.00 0.13 0.00 76 971.8
20260507163532 15 234 0.0 6.4 0.00 0.13 0.00 77 971.7
20260507163032 15 233 1.6 9.7 0.00 0.13 0.00 77 971.7
20260507162531 15 208 3.2 9.7 0.00 0.13 0.00 76 971.7
20260507162033 15 239 3.2 9.7 0.00 0.13 0.00 77 971.7
20260507161532 15 240 3.2 9.7 0.00 0.13 0.00 77 971.5
20260507161029 15 222 1.6 8.0 0.00 0.13 0.00 77 971.6
20260507160530 15 217 3.2 9.7 0.00 0.13 0.00 77 971.7
20260507160032 15 200 1.6 9.7 0.00 0.13 0.00 77 971.7
20260507155529 15 214 0.0 6.4 0.00 0.13 0.00 78 971.8
20260507155029 15 213 0.0 4.8 0.00 0.13 0.00 78 971.9
20260507154531 15 213 0.0 1.6 0.00 0.13 0.00 78 972.0
20260507154030 15 213 0.0 4.8 0.00 0.13 0.00 78 972.1
20260507153528 15 213 0.0 3.2 0.00 0.13 0.00 78 972.1
20260507153034 15 212 0.0 4.8 0.00 0.13 0.00 78 972.2
20260507152529 15 213 0.0 4.8 0.00 0.13 0.00 77 972.1
20260507152028 15 212 0.0 6.4 0.00 0.13 0.00 78 972.0
20260507151627 15 212 0.0 6.4 0.00 0.13 0.00 78 972.0
20260507151027 15 212 0.0 3.2 0.00 0.13 0.00 78 971.9
20260507150530 15 209 0.0 8.0 0.00 0.13 0.00 78 971.9
20260507150027 15 250 0.0 6.4 0.00 0.13 0.00 79 971.9
20260507145528 15 233 0.0 3.2 0.00 0.13 0.00 78 971.9
20260507145026 15 233 0.0 1.6 0.00 0.13 0.00 78 971.8
20260507144530 15 233 0.0 3.2 0.00 0.13 0.00 78 971.8
20260507144026 15 233 0.0 4.8 0.00 0.13 0.00 78 971.7
20260507143528 15 233 0.0 4.8 0.00 0.13 0.00 78 971.7
20260507143026 15 233 0.0 6.4 0.00 0.13 0.00 77 971.7
20260507142527 15 233 0.0 3.2 0.00 0.13 0.00 77 971.7
20260507142025 16 233 0.0 4.8 0.00 0.13 0.00 77 971.7
20260507141626 16 233 1.6 4.8 0.00 0.13 0.00 77 971.8
20260507141025 16 234 0.0 6.4 0.00 0.13 0.00 77 971.8
20260507140528 16 215 0.0 4.8 0.00 0.13 0.00 77 971.7
20260507140024 16 215 1.6 4.8 0.00 0.13 0.00 77 971.6
20260507135528 16 204 0.0 3.2 0.00 0.18 0.00 78 971.5
20260507135024 16 204 0.0 6.4 0.00 0.18 0.00 78 971.6
20260507134524 16 204 1.6 6.4 0.00 0.18 0.00 78 971.9
20260507134026 16 146 0.0 4.8 0.00 0.18 0.00 78 972.0
20260507133528 16 146 0.0 4.8 0.00 0.18 0.00 77 972.0
20260507133024 16 130 0.0 4.8 0.00 0.18 0.00 78 972.1
20260507132523 16 16 0.0 4.8 0.00 0.18 0.00 79 972.0
20260507132023 16 16 0.0 4.8 0.00 0.18 0.00 79 972.0
20260507131526 16 16 0.0 3.2 0.00 0.18 0.00 78 972.1
20260507131024 16 16 0.0 4.8 0.00 0.18 0.00 78 972.2
20260507130523 16 16 1.6 4.8 0.00 0.18 0.00 78 972.1
20260507130029 16 16 0.0 4.8 0.00 0.18 0.00 79 972.2
20260507125526 16 270 0.0 3.2 0.00 0.18 0.00 79 971.9
20260507125021 16 270 0.0 4.8 0.00 0.18 0.00 79 972.0
20260507124522 16 270 1.6 4.8 0.00 0.18 0.00 79 971.9
20260507124022 15 58 0.0 3.2 0.00 0.18 0.00 80 972.0
20260507123521 15 58 0.0 4.8 0.00 0.18 0.00 80 972.0
20260507123021 15 58 0.0 3.2 0.00 0.18 0.00 81 972.0
20260507122521 15 58 0.0 3.2 0.00 0.18 0.00 81 972.0
20260507122021 15 58 0.0 3.2 0.00 0.18 0.00 81 972.0
20260507121519 15 58 0.0 4.8 0.00 0.18 0.00 81 971.9
20260507121019 15 59 0.0 4.8 0.00 0.18 0.00 81 971.9
20260507120520 15 255 0.0 4.8 0.00 0.18 0.00 82 971.9
20260507120018 15 255 0.0 4.8 0.00 0.18 0.00 83 972.1
20260507115517 15 257 0.0 3.2 0.00 0.18 0.00 84 971.9
20260507115017 15 258 0.0 3.2 0.00 0.18 0.00 86 972.0
20260507114519 15 258 0.0 0.0 0.00 0.18 0.00 86 971.9
20260507114016 15 258 0.0 1.6 0.00 0.18 0.00 86 971.9
20260507113517 15 258 0.0 1.6 0.00 0.18 0.00 86 971.9
20260507113015 15 258 0.0 3.2 0.00 0.18 0.00 87 971.9
20260507112515 14 258 0.0 3.2 0.00 0.18 0.00 87 971.7
20260507112014 14 258 0.0 4.8 0.00 0.18 0.00 88 971.4
20260507111513 14 258 0.0 4.8 0.00 0.18 0.00 88 971.5
20260507111013 14 258 0.0 0.0 0.00 0.18 0.00 88 971.4
20260507110512 15 258 0.0 0.0 0.00 0.18 0.00 88 971.3
20260507110012 15 258 0.0 0.0 0.00 0.18 0.00 88 971.1
20260507105511 15 258 0.0 0.0 0.00 0.18 0.00 88 971.2
20260507105011 15 258 0.0 0.0 0.00 0.18 0.00 88 971.3
20260507104511 15 258 0.0 0.0 0.00 0.18 0.00 88 971.1
20260507104011 15 258 0.0 0.0 0.00 0.18 0.00 88 971.2
20260507103510 15 258 0.0 0.0 0.00 0.18 0.00 88 971.2
20260507103010 15 258 0.0 4.8 0.00 0.18 0.00 88 971.1
20260507102510 15 258 0.0 3.2 0.00 0.18 0.00 88 971.3
20260507102010 15 258 0.0 3.2 0.00 0.18 0.00 88 971.1
20260507101509 15 258 0.0 3.2 0.00 0.18 0.00 89 971.3
20260507101012 15 258 0.0 6.4 0.00 0.18 0.00 89 971.1
20260507100508 15 258 0.0 6.4 0.00 0.18 0.00 89 971.1
20260507100009 15 265 0.0 0.0 0.00 0.18 0.00 89 971.1
20260507095508 15 265 0.0 0.0 0.00 0.18 0.00 89 971.2
20260507095008 15 265 0.0 3.2 0.00 0.18 0.00 89 971.0
20260507094507 15 265 0.0 3.2 0.00 0.18 0.00 89 971.1
20260507094007 15 265 0.0 1.6 0.00 0.18 0.00 90 971.4
20260507093507 15 265 0.0 0.0 0.00 0.18 0.00 90 971.1
20260507093006 15 265 0.0 0.0 0.00 0.18 0.00 90 971.0
20260507092512 15 265 0.0 0.0 0.00 0.18 0.00 90 971.2
20260507092009 15 265 0.0 1.6 0.00 0.18 0.00 91 971.3
20260507091507 15 265 0.0 1.6 0.00 0.18 0.00 91 971.3
20260507091005 15 265 0.0 3.2 0.00 0.18 0.00 91 971.0
20260507090507 15 265 1.6 6.4 0.00 0.18 0.00 92 970.8
20260507090004 15 265 1.6 6.4 0.00 0.18 0.00 92 970.7
20260507085503 15 268 0.0 1.6 0.00 0.18 0.00 92 970.3
20260507085001 15 268 0.0 3.2 0.00 0.18 0.00 92 970.6
20260507084602 16 268 0.0 3.2 0.00 0.18 0.00 93 970.8
20260507084059 16 268 0.0 3.2 0.00 0.18 0.00 93 970.7
20260507083559 16 268 0.0 3.2 0.00 0.18 0.00 93 970.8
20260507083119 16 268 0.0 4.8 0.00 0.18 0.00 93 971.1
20260507082559 16 268 0.0 4.8 0.00 0.18 0.00 93 971.0
20260507082059 16 268 0.0 0.0 0.00 0.18 0.00 93 971.0
20260507081604 16 268 0.0 0.0 0.00 0.18 0.00 93 970.9
20260507081059 16 268 0.0 0.0 0.00 0.18 0.00 93 970.9
20260507080557 16 268 0.0 0.0 0.00 0.18 0.00 93 971.0
20260507080058 16 268 0.0 0.0 0.00 0.18 0.00 92 971.0
20260507075557 16 268 0.0 0.0 0.00 0.18 0.00 92 971.0
20260507075057 16 268 0.0 0.0 0.00 0.18 0.00 92 970.8
20260507074611 16 268 0.0 0.0 0.00 0.18 0.00 92 970.9
20260507074057 16 268 0.0 0.0 0.00 0.18 0.00 92 970.8
20260507073556 16 268 0.0 0.0 0.00 0.18 0.00 92 971.0
20260507073101 16 268 0.0 3.2 0.00 0.18 0.00 92 970.9
20260507072555 16 268 0.0 3.2 0.00 0.18 0.00 92 970.8
20260507072054 16 268 0.0 4.8 0.00 0.18 0.00 93 971.0
20260507071554 16 269 0.0 3.2 0.00 0.18 0.00 93 970.6
20260507071053 16 269 0.0 3.2 0.00 0.18 0.00 92 970.8
20260507070554 16 269 0.0 0.0 0.00 0.18 0.00 92 970.8
20260507070052 16 269 0.0 0.0 0.00 0.18 0.00 93 970.5
20260507065551 16 269 0.0 4.8 0.00 0.18 0.00 93 970.5
20260507065051 16 269 0.0 4.8 0.00 0.18 0.00 93 970.5